• în România
  • Lista ţărilor
  • Pe 7 zile
  • Temperatura apei
  • Hartă satelitară
  • Meteo pe hartă
  • Widget-uri
  • user-avatar
    Intrare

    Meteo pe oră la Shkoder

    Astăzi, 13 Decembrie, Miercuri

    Timp Temperatura Precipitaţii Vânt Presiune Umiditate
    00:00 +11°C° 0,2 mm 4 m/s 742 mmHg 92%
    01:00 +11°C° 0 mm 4 m/s 742 mmHg 92%
    02:00 +11°C° 0,2 mm 4 m/s 742 mmHg 92%
    03:00 +11°C° 0,2 mm 4 m/s 741 mmHg 92%
    04:00 +11°C° 0,2 mm 4 m/s 741 mmHg 91%
    05:00 +11°C° 0,5 mm 4 m/s 741 mmHg 91%
    06:00 +11°C° 0,5 mm 4 m/s 741 mmHg 91%
    07:00 +11°C° 0 mm 4 m/s 741 mmHg 92%
    08:00 +11°C° 0,5 mm 4 m/s 741 mmHg 91%
    09:00 +12°C° 0,5 mm 4 m/s 741 mmHg 90%
    10:00 +12°C° 0,5 mm 4 m/s 741 mmHg 88%
    11:00 +12°C° 1,1 mm 4 m/s 741 mmHg 89%
    12:00 +12°C° 1,1 mm 5 m/s 740 mmHg 89%
    13:00 +13°C° 1,1 mm 5 m/s 740 mmHg 89%
    14:00 +12°C° 1,6 mm 5 m/s 740 mmHg 91%
    15:00 +12°C° 1,6 mm 5 m/s 740 mmHg 92%
    16:00 +12°C° 1,6 mm 5 m/s 739 mmHg 93%
    17:00 +12°C° 2,8 mm 5 m/s 739 mmHg 94%
    18:00 +10°C° 2,8 mm 5 m/s 739 mmHg 95%
    19:00 +10°C° 2,8 mm 5 m/s 739 mmHg 95%
    20:00 +10°C° 3,3 mm 5 m/s 739 mmHg 95%
    21:00 +10°C° 3,3 mm 5 m/s 739 mmHg 95%
    22:00 +11°C° 3,3 mm 4 m/s 739 mmHg 95%
    23:00 +11°C° 0,8 mm 4 m/s 739 mmHg 95%

    Mâine, 14 Decembrie, Joi

    Timp Temperatura Precipitaţii Vânt Presiune Umiditate
    00:00 +10°C° 0,8 mm 4 m/s 739 mmHg 96%
    01:00 +10°C° 0,8 mm 3 m/s 739 mmHg 96%
    02:00 +10°C° 0,1 mm 3 m/s 739 mmHg 95%
    03:00 +9°C° 0,1 mm 3 m/s 739 mmHg 95%
    04:00 +9°C° 0,1 mm 2 m/s 739 mmHg 95%
    05:00 +9°C° 0,1 mm 2 m/s 739 mmHg 95%
    06:00 +8°C° 0,1 mm 2 m/s 739 mmHg 94%
    07:00 +8°C° 0,1 mm 2 m/s 740 mmHg 94%
    08:00 +9°C° 0,1 mm 2 m/s 740 mmHg 90%
    09:00 +9°C° 0,1 mm 3 m/s 740 mmHg 87%
    10:00 +10°C° 0,1 mm 3 m/s 740 mmHg 84%
    11:00 +10°C° 0,1 mm 3 m/s 740 mmHg 84%
    12:00 +10°C° 0,1 mm 3 m/s 740 mmHg 84%
    13:00 +10°C° 0,1 mm 4 m/s 739 mmHg 84%
    14:00 +10°C° 0,3 mm 4 m/s 739 mmHg 86%
    15:00 +10°C° 0,3 mm 4 m/s 739 mmHg 89%
    16:00 +8°C° 0,3 mm 4 m/s 739 mmHg 91%
    17:00 +8°C° 0,4 mm 4 m/s 739 mmHg 91%
    18:00 +8°C° 0,4 mm 4 m/s 739 mmHg 91%
    19:00 +8°C° 0,4 mm 4 m/s 739 mmHg 91%
    20:00 +8°C° 0,3 mm 4 m/s 739 mmHg 91%
    21:00 +8°C° 0,3 mm 4 m/s 739 mmHg 91%
    22:00 +8°C° 0,3 mm 4 m/s 739 mmHg 91%
    23:00 +8°C° 0,2 mm 4 m/s 739 mmHg 90%

    Poimâine, 15 Decembrie, Vineri

    Timp Temperatura Precipitaţii Vânt Presiune Umiditate
    00:00 +8°C° 0,2 mm 4 m/s 739 mmHg 90%
    01:00 +8°C° 0,2 mm 4 m/s 739 mmHg 90%
    02:00 +8°C° 0,2 mm 4 m/s 739 mmHg 89%
    03:00 +8°C° 0,2 mm 4 m/s 738 mmHg 89%
    04:00 +8°C° 0,2 mm 4 m/s 738 mmHg 88%
    05:00 +8°C° 0,3 mm 4 m/s 738 mmHg 88%
    06:00 +8°C° 0,3 mm 4 m/s 738 mmHg 88%
    07:00 +8°C° 0,3 mm 4 m/s 737 mmHg 87%
    08:00 +10°C° 1 mm 4 m/s 737 mmHg 88%
    09:00 +10°C° 1 mm 4 m/s 737 mmHg 88%
    10:00 +9°C° 1 mm 5 m/s 737 mmHg 88%
    11:00 +9°C° 1,6 mm 5 m/s 736 mmHg 89%
    12:00 +9°C° 1,6 mm 6 m/s 736 mmHg 90%
    13:00 +10°C° 1,6 mm 6 m/s 735 mmHg 90%
    14:00 +10°C° 1 mm 6 m/s 735 mmHg 91%
    15:00 +10°C° 1 mm 7 m/s 735 mmHg 92%
    16:00 +10°C° 1 mm 7 m/s 734 mmHg 93%
    17:00 +10°C° 0,8 mm 7 m/s 734 mmHg 93%
    18:00 +10°C° 0,8 mm 7 m/s 734 mmHg 94%
    19:00 +10°C° 0,8 mm 6 m/s 734 mmHg 94%
    20:00 +10°C° 0,8 mm 6 m/s 734 mmHg 94%
    21:00 +10°C° 0,8 mm 7 m/s 734 mmHg 94%
    22:00 +10°C° 0,8 mm 7 m/s 734 mmHg 94%
    23:00 +10°C° 1 mm 7 m/s 734 mmHg 94%

    16 Decembrie, Sâmbătă

    Timp Temperatura Precipitaţii Vânt Presiune Umiditate
    00:00 +10°C° 1 mm 7 m/s 734 mmHg 94%
    01:00 +10°C° 1 mm 7 m/s 733 mmHg 95%
    02:00 +10°C° 1 mm 7 m/s 733 mmHg 94%
    03:00 +10°C° 1 mm 7 m/s 732 mmHg 94%
    04:00 +10°C° 1 mm 6 m/s 732 mmHg 94%
    05:00 +10°C° 1,9 mm 6 m/s 732 mmHg 93%
    06:00 +10°C° 1,9 mm 6 m/s 732 mmHg 92%
    07:00 +10°C° 1,9 mm 6 m/s 732 mmHg 92%
    08:00 +11°C° 1,2 mm 7 m/s 732 mmHg 91%
    09:00 +11°C° 1,2 mm 7 m/s 732 mmHg 90%
    10:00 +12°C° 1,2 mm 7 m/s 731 mmHg 89%
    11:00 +11°C° 2,1 mm 7 m/s 731 mmHg 89%
    12:00 +11°C° 2,1 mm 8 m/s 731 mmHg 89%
    13:00 +11°C° 2,1 mm 8 m/s 731 mmHg 89%
    14:00 +11°C° 3,8 mm 7 m/s 730 mmHg 91%
    15:00 +10°C° 3,8 mm 6 m/s 730 mmHg 92%
    16:00 +10°C° 3,8 mm 5 m/s 730 mmHg 94%
    17:00 +10°C° 4,1 mm 4 m/s 730 mmHg 95%
    18:00 +10°C° 4,1 mm 3 m/s 730 mmHg 95%
    19:00 +10°C° 4,1 mm 2 m/s 730 mmHg 96%
    20:00 +10°C° 3 mm 2 m/s 730 mmHg 96%
    21:00 +11°C° 3 mm 1 m/s 730 mmHg 96%
    22:00 +10°C° 3 mm 1 m/s 730 mmHg 96%
    23:00 +9°C° 2,3 mm 2 m/s 730 mmHg 96%

    17 Decembrie, Duminică

    Timp Temperatura Precipitaţii Vânt Presiune Umiditate
    00:00 +9°C° 2,3 mm 2 m/s 731 mmHg 96%
    01:00 +9°C° 2,3 mm 3 m/s 731 mmHg 96%
    02:00 +8°C° 1,8 mm 3 m/s 731 mmHg 94%
    03:00 +8°C° 1,8 mm 3 m/s 732 mmHg 92%
    04:00 +7°C° 1,8 mm 3 m/s 733 mmHg 90%
    05:00 +7°C° 0,5 mm 3 m/s 733 mmHg 90%
    06:00 +6°C° 0,5 mm 2 m/s 734 mmHg 90%
    07:00 +6°C° 0,5 mm 2 m/s 735 mmHg 90%
    08:00 +6°C° 0,6 mm 2 m/s 735 mmHg 88%
    09:00 +6°C° 0,6 mm 2 m/s 736 mmHg 87%
    10:00 +6°C° 0,6 mm 2 m/s 736 mmHg 86%
    11:00 +5°C° 1,1 mm 3 m/s 737 mmHg 87%
    12:00 +5°C° 1,1 mm 3 m/s 737 mmHg 87%
    13:00 +4°C° 1,1 mm 3 m/s 737 mmHg 88%
    14:00 +4°C° 1 mm 3 m/s 738 mmHg 88%
    15:00 +3°C° 1 mm 3 m/s 738 mmHg 87%
    16:00 +1°C° 1 mm 4 m/s 739 mmHg 87%
    17:00 +2°C° 0,1 mm 3 m/s 739 mmHg 86%
    18:00 +1°C° 0,1 mm 3 m/s 740 mmHg 86%
    19:00 +1°C° 0,1 mm 3 m/s 741 mmHg 86%
    20:00 0°C° 0 mm 3 m/s 741 mmHg 85%
    21:00 -1°C° 0 mm 3 m/s 742 mmHg 84%
    22:00 -1°C° 0 mm 3 m/s 742 mmHg 84%
    23:00 -1°C° 0 mm 3 m/s 743 mmHg 83%

    18 Decembrie, Luni

    Timp Temperatura Precipitaţii Vânt Presiune Umiditate
    00:00 -2°C° 0 mm 3 m/s 743 mmHg 82%
    01:00 -2°C° 0 mm 3 m/s 743 mmHg 82%
    02:00 -2°C° 0 mm 3 m/s 744 mmHg 81%
    03:00 -2°C° 0 mm 3 m/s 744 mmHg 81%
    04:00 -2°C° 0 mm 3 m/s 744 mmHg 80%
    05:00 -4°C° 0 mm 3 m/s 744 mmHg 80%
    06:00 -4°C° 0 mm 3 m/s 745 mmHg 80%
    07:00 -4°C° 0 mm 3 m/s 745 mmHg 79%
    08:00 -1°C° 0 mm 3 m/s 745 mmHg 76%
    09:00 0°C° 0 mm 3 m/s 746 mmHg 73%
    10:00 +1°C° 0 mm 3 m/s 746 mmHg 70%
    11:00 +2°C° 0 mm 3 m/s 746 mmHg 68%
    12:00 +2°C° 0 mm 3 m/s 745 mmHg 65%
    13:00 +3°C° 0 mm 2 m/s 745 mmHg 63%
    14:00 +2°C° 0 mm 2 m/s 745 mmHg 66%
    15:00 +1°C° 0 mm 2 m/s 745 mmHg 69%
    16:00 -1°C° 0 mm 2 m/s 745 mmHg 73%
    17:00 -1°C° 0 mm 2 m/s 746 mmHg 73%
    18:00 -2°C° 0 mm 2 m/s 746 mmHg 73%
    19:00 -3°C° 0 mm 2 m/s 746 mmHg 73%
    20:00 -3°C° 0 mm 2 m/s 746 mmHg 72%
    21:00 -3°C° 0 mm 2 m/s 747 mmHg 70%
    22:00 -3°C° 0 mm 2 m/s 747 mmHg 69%
    23:00 -3°C° 0 mm 2 m/s 747 mmHg 68%
    Arată mai mult